GEOSCAN 1 (RS92S1)

Last updated on Fri Dec 19 2025 00:03:12 GMT+0000 (Coordinated Universal Time)

1 64880U 25155E 25352.63282486 .00009713 00000+0 38075-3 0 9995 2 64880 97.4338 316.3469 0010682 94.5507 265.6952 15.25921974 53199
UTC large
Height (km)
Speed (km/s)
/
Latitude / Longitude
Inclination (degrees)
Orbital Period (minutes)
Azimuth
Elevation
Range (km)
Doppler Factor

Next 0 passes for location: London (51.5072 / 0.1276)

Sorry there are no passes over London.